Regional Weather Roundup
Issued by NWS

Home | Current Version | Previous Version | Text Only | Print | Product List | Glossary On
Versions: 1 2 3 4 5 6 7 8 9 10 11 12 13 14 15 16 17 18 19 20 21 22 23 24 25 26 27 28 29 30 31 32 33 34 35 36 37 38 39 40 41 42 43 44 45 46 47 48 49 50
000
ASUS42 KFFC 190710
RWRGA
WEATHER ROUNDUP FOR GEORGIA
NATIONAL WEATHER SERVICE PEACHTREE CITY GA
200 AM EST FRI JAN 19 2018

NOTE: "FAIR" INDICATES FEW OR NO CLOUDS BELOW 12,000 FEET WITH NO
SIGNIFICANT WEATHER AND/OR OBSTRUCTIONS TO VISIBILITY.

* = USE WITH CAUTION. THE STATIONS MARKED WITH AN ASTERISK MAY NOT
REPORT WEATHER SUCH AS PRECIPITATION, FOG, OR THUNDER AND ARE NOT
QUALITY CONTROLLED BY NWS.

THE REMARK "TC" DENOTES TEMPERATURE READING IN DEGREES CELSIUS.

GAZ001>058-190800-
NORTH GEORGIA

CITY           SKY/WX    TMP DP  RH WIND       PRES   REMARKS
ATLANTA        FAIR      28  14  55 NW8       30.29F WCI  20
ATHENS         FAIR      28  14  55 W5        30.26F WCI  23
CHAMBLEE       FAIR      29  11  47 NW5       30.28F WCI  24
PEACHTREE CITY FAIR      23  15  71 CALM      30.31F
ROME           FAIR      20  15  81 CALM      30.33F
WEST ATLANTA   FAIR      29  13  51 CALM      30.31S
GAINESVILLE    FAIR      30  11  45 W13       30.25F WCI  20
CARTERSVILLE   FAIR      21  16  81 CALM      30.34F


CITY           SKY/WX    TMP DP  RH WIND       PRES   REMARKS
DALTON*        FAIR      19  16  86 CALM      30.35F
LAWRENCEVILLE* FAIR      31  13  47 W6          N/A  WCI  25
MARIETTA       FAIR      25  12  57 W7        30.28F WCI  17
KENNESAW*      FAIR      26  13  57 NW3       30.31F
CANTON*        FAIR      32  14  47 NW8       30.28F WCI  25
BLAIRSVILLE*   FAIR      18  15  87 CALM      30.27F
$$

GAZ059>098-102>109-190800-
CENTRAL GEORGIA

CITY           SKY/WX    TMP DP  RH WIND       PRES   REMARKS
AUGUSTA-BUSH   FAIR      25  18  74 CALM      30.29F
AUGUSTA-DANIEL FAIR      33  14  45 CALM      30.28F
COLUMBUS       FAIR      29  18  63 CALM      30.35F
MACON          FAIR      25  21  85 SW5       30.33F WCI  19
ROBINS AFB     CLEAR     26  22  84 CALM      30.33S


CITY           SKY/WX    TMP DP  RH WIND       PRES   REMARKS
LAGRANGE*      FAIR      22  20  92 CALM      30.34S
SYLVANIA*      FAIR      28  22  75 CALM      30.32S
MILLEDGEVILLE* FAIR      28  21  74 CALM      30.31S
$$

GAZ099>101-110>166-190800-
SOUTH GEORGIA

CITY           SKY/WX    TMP DP  RH WIND       PRES   REMARKS
SAVANNAH       FAIR      29  19  66 CALM      30.33S
VALDOSTA       FAIR      23  21  92 CALM      30.35F
ALMA           FAIR      26  21  81 CALM      30.34S
ST SIMONS      FAIR      31  24  75 W3        30.34S
FT STEWART     FAIR      28  20  73 CALM      30.32R
ALBANY         FAIR      26  19  74 CALM      30.38S
HUNTER AFB     FAIR      27  19  70 W5        30.30S WCI  22
MOODY AFB      FAIR      27  20  73 CALM      30.34S
BRUNSWICK      FAIR      30  23  74 CALM      30.35R


CITY           SKY/WX    TMP DP  RH WIND       PRES   REMARKS
BAINBRIDGE*      N/A     28  27  93 CALM      30.37F
MOULTRIE*      FAIR      30  27  86 CALM      30.36S
VIDALIA*       FAIR      32  21  64 W3        30.33S
WAYCROSS*      FAIR      27  21  77 CALM      30.34F
DOUGLAS*       FAIR      28  23  80 CALM      30.36S
$$




USA.gov is the U.S. government's official web portal to all federal, state and local government web resources and services.